Location: Brienzwiler
(46.7508°N, 8.1014°E)
Time: 06:36:51
(UTC+00:00)

COSMOS 2455 - Pass Details

Date: 05 July 2020
Orbit: 898 x 911 km, 67.1° (Epoch: 05 August)

Event Time Altitude Azimuth Distance (km) Brightness Sun altitude
Rises 23:26:42 0° 327° (NNW) 3,551 6.9 -20.6°
Reaches altitude 10° 23:29:14 10° 328° (NNW) 2,607 6.1 -20.6°
Maximum altitude 23:35:18 84° 56° (ENE) 922 2.8 -20.6°
Enters shadow 23:38:24 31° 144° (SE) 1,549 3.6 -20.6°
